www.pogodaiklimat.ru

Погода и климат >> Архив погоды >> Украина >> Кривой Рог


АРХИВ ПОГОДЫ в Кривом Роге

Время (UTC), дата Ветер
(напр.,м/с)
 
Видим.   Явления Облачность Т
(С)
Тd
(С)
f
(%)
Тe
(С)
Тes
(С)
Комфортность P
(гПа)
Po
(гПа)
Тmin
(С)
Tmax
(С)
R
(мм)
R24
(мм)
S
(см)
03 17.07 штиль 0 10 км 3/0
[Ac trans]
+13.5 +12.4 93 +13 +13 очень
холодно
1008.0 993.4
06 17.07 З 2 10 км ясно +21.5 +14.0 62 +24 +32 комфорт 1007.8 993.6 +13.5
09 17.07 З 5 10 км 4/4 1000 м
[Cu med, cong]
+23.9 +11.3 45 +25 +31 комфорт 1007.7 993.6
12 17.07 З 3 10 км 4/4 1000 м
[Cu med, cong]
+25.9 +9.4 35 +26 +33 жарко 1006.9 992.9
15 17.07 СЗ 4 10 км 6/3 1000 м
[Cu med, cong Ac trans]
+25.6 +11.4 41 +27 +28 жарко 1006.5 992.5
18 17.07 штиль 0 10 км 3/0
[Ac trans]
+21.3 +11.7 54 +23 +23 комфорт 1007.1 992.9 +27.0 0.5
21 17.07 СЗ 3 10 км 8/0
[Ac trans]
+17.6 +13.2 75 +18 +18 прохладно 1008.4 994.0
00 18.07 штиль 0 10 км 3/0
[Ac trans]
+14.5 +11.9 84 +14 +14 прохладно 1008.5 994.0
03 18.07 СЗ 3 10 км ясно +13.7 +11.5 87 +13 +13 очень
холодно
1009.4 994.8
06 18.07 СЗ 4 10 км 3/0
[Ac trans]
+18.2 +12.1 68 +18 +23 холодно 1010.1 995.7 +13.1
09 18.07 СЗ 3 10 км 3/0
[Ac trans]
+20.8 +11.5 55 +23 +35 комфорт 1010.5 996.2
12 18.07 З 5 10 км 3/3 1000 м
[Cu hum]
+23.8 +8.3 37 +24 +29 комфорт 1010.4 996.3
15 18.07 СЗ 5 10 км 3/3 1000 м
[Cu hum]
+24.2 +9.1 38 +25 +26 комфорт 1010.9 996.8
18 18.07 штиль 0 10 км ясно +19.2 +9.6 54 +20 +20 прохладно 1012.3 997.9 +25.0
21 18.07 СЗ 1 10 км ясно +16.5 +11.7 73 +17 +17 прохладно 1013.6 999.1
00 19.07 З 1 10 км ясно +14.6 +10.4 76 +15 +15 прохладно 1014.4 999.8
03 19.07 СЗ 2 10 км 3/0
[Ci fib]
+13.0 +9.3 78 +12 +13 очень
холодно
1015.6 1000.9
06 19.07 СЗ 2 10 км 5/0
[Ci fib]
+19.7 +12.0 61 +22 +29 комфорт 1016.2 1001.8 +11.5
09 19.07 З 6 10 км 8/5 1300 м
[Cu hum Ci fib]
+23.5 +10.7 44 +25 +28 комфорт 1016.3 1002.1
12 19.07 СЗ 4 10 км 5/5 1300 м
[Cu hum]
+25.2 +9.8 38 +26 +31 жарко 1016.0 1001.9
15 19.07 З 4 10 км 3/0
[Ac trans]
+25.4 +8.0 33 +26 +27 жарко 1015.8 1001.7
18 19.07 штиль 0 10 км ясно +21.4 +9.5 47 +23 +23 комфорт 1016.5 1002.2 +25.8
21 19.07 штиль 0 10 км ясно +19.0 +10.7 59 +20 +20 по сезону 1017.6 1003.2
00 20.07 штиль 0 10 км ясно +15.8 +10.7 72 +16 +16 прохладно 1018.3 1003.7
03 20.07 штиль 0 10 км ясно +13.8 +9.7 76 +13 +14 очень
холодно
1019.0 1004.3
06 20.07 штиль 0 10 км 3/0
[Ac trans]
+23.5 +12.5 50 +25 +34 комфорт 1019.4 1005.2 +13.8 185
09 20.07 ЮВ 2 10 км 3/3 1000 м
[Cu hum]
+27.6 +10.1 33 +28 +40 жарко 1019.1 1005.0
12 20.07 З 2 10 км 5/5 1200 м
[Cu hum]
+28.2 +9.8 32 +28 +35 жарко 1018.6 1004.6
15 20.07 СЗ 2 10 км 3/3 1000 м
[Cu hum]
+28.1 +10.7 34 +29 +31 жарко 1017.7 1003.7
18 20.07 СВ 1 10 км ясно +23.8 +11.1 45 +25 +25 комфорт 1018.1 1003.9 +29.1
21 20.07 В 3 10 км ясно +19.4 +11.0 58 +21 +21 комфорт 1019.0 1004.6
00 21.07 С 1 10 км ясно +16.7 +11.5 71 +18 +18 по сезону 1019.0 1004.4
03 21.07 В 2 10 км 3/0
[Ac trans]
+16.6 +12.2 75 +17 +17 прохладно 1018.7 1004.1
06 21.07 Ю 1 10 км 6/0
[Ac trans]
+23.9 +15.4 59 +27 +33 жарко 1018.5 1004.3 +15.4
09 21.07 З 3 10 км 10/3 1000 м
[Cu med, cong Ac trans Ci fib]
+29.0 +14.1 40 +31 +36 жарко 1017.9 1003.9
12 21.07 СЗ 3 10 км {ливн. осадки} 8/3 1000 м
[Cb calv Ac trans Ci fib]
+28.7 +12.7 37 +30 +35 жарко 1017.6 1003.6 2
15 21.07 СВ 4 10 км 4/0
[Ac trans]
+27.0 +13.3 43 +29 +31 жарко 1017.1 1003.1
18 21.07 В 1 10 км 3/0
[Ac trans]
+21.4 +13.8 62 +24 +24 комфорт 1017.4 1003.1 +29.2 2
21 21.07 С 1 10 км ясно +17.9 +13.5 75 +19 +19 прохладно 1018.5 1004.0
00 22.07 ЮЗ 2 10 км ясно +15.4 +12.7 84 +15 +15 прохладно 1018.4 1003.8
03 22.07 В 2 10 км ясно +15.8 +13.3 85 +16 +16 холодно 1017.9 1003.3
06 22.07 Ю 1 10 км ясно +24.4 +15.1 56 +27 +37 жарко 1017.5 1003.3 +15.4
09 22.07 ЮЗ 3 10 км ясно +29.1 +14.2 40 +31 +45 жарко 1016.4 1002.5
12 22.07 ЮЗ 2 10 км 3/3 1000 м
[Cu hum]
+31.6 +14.7 36 +34 +43 душно 1014.8 1001.0
15 22.07 СЗ 5 10 км 6/3 600 м
[Cb calv Ac trans]
+30.0 +12.8 35 +31 +32 жарко 1014.4 1000.5
18 22.07 С 2 10 км 6/0
[Ac trans]
+22.3 +16.0 68 +26 +26 жарко 1014.8 1000.6 +31.8
21 22.07 С 1 10 км 6/0
[Ci fib]
+19.8 +18.2 90 +24 +24 комфорт 1014.9 1000.6
00 23.07 СЗ 2 10 км {ливн. осадки} ясно +18.4 +17.6 95 +20 +20 тепло 1014.6 1000.2
03 23.07 С 3 10 км 4/0
[Ac trans]
+18.4 +16.1 86 +19 +19 прохладно 1014.0 999.6
06 23.07 С 4 10 км 8/0
[Ac trans Ci fib]
+20.2 +16.2 78 +23 +27 комфорт 1013.9 999.6 +17.4
09 23.07 С 4 10 км 5/3 1000 м
[Cu hum Ci fib]
+24.7 +14.1 52 +27 +35 жарко 1013.1 999.0
12 23.07 С 4 10 км 8/3 1000 м
[Cu hum Ci fib]
+26.2 +12.6 43 +28 +33 жарко 1011.8 997.8
15 23.07 С 4 10 км 8/3 1000 м
[Cu hum Ci fib]
+25.1 +12.7 46 +27 +28 жарко 1011.2 997.1
18 23.07 СВ 1 10 км 8/0
[Ac trans]
+22.4 +13.4 57 +25 +25 комфорт 1011.4 997.2 +26.7
21 23.07 С 3 10 км 5/0
[Ac trans]
+19.8 +14.1 70 +22 +22 комфорт 1011.2 996.9

 

Местоположение метеостанции Кривой Рог (Днепропетровская область, Украина): широта 48.03 долгота 33.22 высота над уровнем моря 124 м.

В архиве по умолчанию представлена погода в Кривом Роге за последнюю неделю. Архивные данные за месяц целиком и за предыдущие месяцы, начиная с января 2011 года, Вы можете получить, выбрав интересующий диапазон дат из раскрывающегося списка и нажав кнопку "Ввод!".


*Определитесь, кто Вы:
робот инопланетянин человек

Внимание! Время в таблицах - всемирное. Для получения местного времени необходимо прибавить поправку, которая равна 2 ч.

Смотрите также архив погоды в соседних городах и на ближайших метеорологических станциях:

Погода в Долинской (Кировоградская область, Украина) (35 км)
Погода в Комиссаровке (Днепропетровская область, Украина) (67 км)
Погода в Лошкаревке (Днепропетровская область, Украина) (73 км)
Погода в Великой Александровке (Херсонская область, Украина) (79 км)
Погода в Бобринце (Кировоградская область, Украина) (80 км)
Погода в Знаменке (Кировоградская область, Украина) (87 км)
Погода в Баштанке (Николаевская область, Украина) (88 км)
Погода в Кропивницком (Кировоградская область, Украина) (93 км)
Погода в Никополе (Днепропетровская область, Украина) (105 км)
Погода в Светловодске (Кировоградская область, Украина) (113 км)

Пояснения к столбцам:

Ветер - указаны скорость ветра в м/с - средняя за 10 мин, порывы в срок и между сроками (в фигурных скобках) и направление, откуда дует ветер: С - северный, СВ - северо-восточный, В - восточный, ЮВ - юго-восточный, Ю - южный, ЮЗ - юго-западный, З - западный, СЗ - северо-западный.
Видимость - горизонтальная дальность видимости в метрах или километрах. При видимости от 1 до 10 км при отсутствии осадков обычно наблюдается дымка, при ухудшении видимости до 1 км и менее - туман. В сухую погоду видимость может ухудшаться дымом, пылью или мглою.
Явления - указаны атмосферные явления, наблюдавшиеся в срок или в последний час перед сроком; фигурными скобками обозначены явления, наблюдавшиеся между сроками (за 1-3 часа до срока); квадратными скобками обозначены град или гололедные отложения с указанием их диаметра в мм.
Облачность - указаны через наклонную черту общая и нижняя облачность в баллах и высота нижней границы облаков в метрах; квадратными скобками обозначены формы облаков: Ci - перистые, Cs - перисто-слоистые, Cc - перисто-кучевые, Ac - высококучевые, As - высокослоистые, Sc - слоисто-кучевые, Ns - слоисто-дождевые, Cu - кучевые, Cb - кучево-дождевые. Подробнее классификацию облаков см. в Атласе облаков (PDF).
T - Температура воздуха - температура, измеренная на высоте 2 м над землей.
Td - Температура точки росы - температура, при понижении до которой содержащийся в воздухе водяной пар достигнет насыщения.
f - Относительная влажность воздуха - влажноcть воздуха, измеренная на высоте 2 м над землей.
Te - Эффективная температура - температура, которую ощущает одетый по сезону человек в тени. Характеристика душности погоды. При расчете учитывается влияние влажности воздуха и скорости ветра на теплоощущения человека.
Tes - Эффективная температура на солнце - температура, которую ощущает человек, с поправкой на солнечный нагрев. Характеристика знойности погоды. Зависит от высоты солнца над горизонтом, облачности и скорости ветра. Ночью, в пасмурную погоду, а также при ветре 12 м/с и более поправка равна нулю.
P - Атмосферное давление - приведенное к уровню моря атмосферное давление.
Po - Атмосферное давление - измеренное на уровне метеостанции атмосферное давление.
Tmin - Минимальная температура - минимум температуры воздуха на высоте 2 м над землей.
Tmax - Максимальная температура - максимум температуры воздуха на высоте 2 м над землей.
R - Количество осадков - Количество выпавших осадков за период времени, мм. При наведении курсора мыши на число - период времени, за который выпало указанное количество осадков.
R24 - Количество осадков - Количество выпавших осадков за 24 часа, мм.
S - Снежный покров - Высота снежного покрова, см. При наведении курсора мыши на число - состояние снежного покрова и степень покрытия местности в баллах.